FLOCK 3P-83

Last updated on Wed Feb 14 2018 16:20:34 GMT+0000 (Coordinated Universal Time)

1 42050U 17008DG 18045.18097111 .00001547 00000-0 66971-4 0 9993 2 42050 97.4678 110.7998 0010011 73.9796 286.2542 15.23914469 55264

Satellite not in orbit

FLOCK 3P-83